Location: Lecco
(45.8566°N, 9.3977°E)
Time: 16:35:03
(UTC+02:00)

ISS - Pass Details

Date: 22 July 2018
Orbit: 402 x 408 km, 51.6° (Epoch: 20 July)

Event Time Altitude Azimuth Distance (km) Brightness Sun altitude
Rises 03:42:34 0° 296° (WNW) 2,331 0.0 -17.2°
Reaches altitude 10° 03:44:40 10° 293° (WNW) 1,468 -1.1 -17.0°
Maximum altitude 03:47:55 61° 213° (SSW) 465 -3.9 -16.7°
Drops below altitude 10° 03:51:10 10° 132° (SE) 1,463 -1.1 -16.4°
Sets 03:53:15 0° 129° (SE) 2,321 0.0 -16.2°
